Powrót do katalogu

STARLINK-11429

AktywnyŁącznośćVLEO
NORAD 62061·PAYLOAD·🇺🇸 United States

Wystrzelony Nov 24, 2024 z Vandenberg Space Force Base

Loading…

Następne Przeloty (najbliższe 24 godziny)

TLE

ŚwieżeSource: CelesTrak SupGP

Epoka: Sep 14, 2026, 21:34 UTC

1 62061C 24217E   26257.89909722  .00068742  00000+0  56613-3 0  2576
2 62061  53.1569 218.5956 0001186  94.8684 134.3508 15.69680252    16

Śledź STARLINK-11429 w czasie rzeczywistym z AllMySat

Download on the App Store